Location: Fishcreek Rd Observing Site
(41.1865°N, 81.4271°W)
Time: 23:37:55
(UTC-04:00)

Iridium 75 - Visible Passes

Search period start: 30 July 2016 00:00
Search period end: 09 August 2016 00:00
Orbit: 776 x 779 km, 86.4° (Epoch: 30 July)

Date Brightness Start Highest point End Pass type
(mag) Time Alt. Az. Time Alt. Az. Time Alt. Az.
30 Jul 6.2 04:43:07 10° S 04:48:18 72° E 04:53:31 10° N visible
31 Jul 7.3 04:10:06 10° SSE 04:14:54 39° E 04:19:42 10° NNE visible
01 Aug 8.2 03:37:45 10° SE 03:41:37 22° E 03:45:30 10° NNE visible
01 Aug 6.5 05:17:23 12° SSW 05:21:59 43° W 05:26:58 10° N visible
02 Aug 8.7 03:06:45 10° E 03:08:28 12° ENE 03:10:10 10° ENE visible
02 Aug 6.0 04:44:23 17° S 04:48:24 80° W 04:53:38 10° N visible
03 Aug 6.6 04:11:21 19° SSE 04:14:55 56° E 04:20:02 10° NNE visible
03 Aug 7.6 05:52:43 10° WSW 05:56:02 17° WNW 05:59:21 10° NW visible
04 Aug 7.6 03:38:19 16° SE 03:41:34 30° E 03:46:05 10° NNE visible
04 Aug 7.0 05:18:49 16° SW 05:22:13 30° W 05:26:47 10° NNW visible
05 Aug 8.4 03:05:15 11° ESE 03:08:20 17° ENE 03:11:37 10° NE visible
05 Aug 6.2 04:45:46 26° SSW 04:48:33 55° W 04:53:40 10° N visible
06 Aug 6.0 04:12:40 34° S 04:14:59 81° E 04:20:14 10° N visible
06 Aug 8.0 05:54:39 10° W 05:56:23 11° WNW 05:58:06 10° NW visible
07 Aug 6.9 03:39:34 30° SE 03:41:34 44° E 03:46:30 10° NNE visible
07 Aug 7.4 05:20:04 16° WSW 05:22:30 21° WNW 05:26:25 10° NNW visible
08 Aug 7.8 03:06:28 20° ESE 03:08:16 24° E 03:12:24 10° NNE visible
08 Aug 6.6 04:46:57 29° WSW 04:48:44 38° W 04:53:35 10° NNW visible
